Weather History for KARB - April, 2013

Change the Weather History Date:

Friday, April 12, 2013

  Actual Average Record
Temperature  
Mean Temperature 40 °F -  
Max Temperature 44 °F 58 °F 72 °F (2002)
Min Temperature 35 °F 36 °F 24 °F (2009)
Degree Days  
Heating Degree Days 26    
Moisture  
Dew Point 35 °F    
Average Humidity 85    
Maximum Humidity 97    
Minimum Humidity 67    
Precipitation  
Precipitation 0.32 in - - ()
Sea Level Pressure  
Sea Level Pressure 29.64 in    
Wind  
Wind Speed 9 mph (WSW)    
Max Wind Speed 21 mph    
Max Gust Speed 29 mph    
Visibility 8 miles    
Events Rain    
Averages and records for this station are not official NWS values.
T = Trace of Precipitation, MM = Missing Value Source: NWS Daily Summary

Daily Weather History Graph

Daily Weather History Graph

Search for Another Location

Airport or City:

Trip Planner

Search our weather history database for the weather conditions in past years. The results will help you decide how hot, cold, wet, or windy it might be!

Date:

Astronomy

Apr. 12, 2013 Rise Set
Actual Time 6:58 AM EDT 8:13 PM EDT
Civil Twilight 6:29 AM EDT 8:42 PM EDT
Nautical Twilight 5:55 AM EDT 9:17 PM EDT
Astronomical Twilight 5:18 AM EDT 9:53 PM EDT
Moon 8:05 AM EDT (4/12) 10:46 PM EDT (4/12)
Length of Visible Light 14h 12m
Length of Day
13h 14m
Waxing Crescent, 5% of the Moon is Illuminated
Apr 12
Waxing Crescent
Apr 18
First Quarter
Apr 25
Full
May 2
Last Quarter
May 9
New

Hourly Weather History & Observations

Time (EDT) Temp. Windchill Dew Point Humidity Pressure Visibility Wind Dir Wind Speed Gust Speed Precip Events Conditions
12:53 AM 37.0 °F 28.5 °F 35.1 °F 93% 29.61 in 5.0 mi East 13.8 mph 21.9 mph 0.04 in Rain Light Rain
1:53 AM 37.0 °F - 36.0 °F 96% 29.61 in 5.0 mi Calm Calm - 0.03 in Rain Light Rain
2:06 AM 37.4 °F - 35.6 °F 93% 29.60 in 2.0 mi Calm Calm - 0.03 in Rain Rain
2:29 AM 37.4 °F 32.1 °F 35.6 °F 93% 29.57 in 3.0 mi ENE 6.9 mph - 0.10 in Rain Light Rain
2:53 AM 37.0 °F 31.6 °F 36.0 °F 96% 29.58 in 4.0 mi NE 6.9 mph - 0.15 in Rain Rain
3:21 AM 37.4 °F 32.1 °F 35.6 °F 93% 29.54 in 5.0 mi NNE 6.9 mph - 0.01 in   Overcast
3:53 AM 37.0 °F 32.4 °F 36.0 °F 96% 29.58 in 8.0 mi NNW 5.8 mph - 0.02 in Rain Light Rain
4:53 AM 37.0 °F 32.4 °F 36.0 °F 96% 29.58 in 4.0 mi North 5.8 mph - 0.05 in Rain Light Rain
5:10 AM 37.4 °F 33.8 °F 35.6 °F 93% 29.55 in 6.0 mi NNE 4.6 mph - 0.02 in Rain Light Rain
5:33 AM 37.4 °F 32.1 °F 35.6 °F 93% 29.53 in 10.0 mi NNE 6.9 mph - 0.02 in Rain Light Rain
5:53 AM 36.0 °F 29.6 °F 35.1 °F 97% 29.54 in 10.0 mi NNE 8.1 mph - 0.02 in   Overcast
6:18 AM 35.6 °F 30.7 °F 33.8 °F 93% 29.53 in 10.0 mi North 5.8 mph - 0.00 in Rain Light Rain
6:37 AM 37.4 °F 32.8 °F 33.8 °F 87% 29.53 in 10.0 mi North 5.8 mph - 0.00 in   Overcast
6:53 AM 37.0 °F 34.5 °F 34.0 °F 89% 29.55 in 10.0 mi North 3.5 mph - 0.00 in   Overcast
7:53 AM 37.0 °F - 35.1 °F 93% 29.58 in 8.0 mi Calm Calm - N/A   Overcast
8:33 AM 37.4 °F 34.9 °F 35.6 °F 93% 29.56 in 4.0 mi West 3.5 mph - N/A   Overcast
8:40 AM 37.4 °F 33.8 °F 35.6 °F 93% 29.56 in 3.0 mi West 4.6 mph - N/A   Overcast
8:53 AM 37.0 °F 32.4 °F 36.0 °F 96% 29.58 in 4.0 mi WSW 5.8 mph - N/A   Overcast
9:53 AM 37.9 °F 32.7 °F 37.0 °F 97% 29.60 in 2.5 mi West 6.9 mph - N/A   Overcast
10:23 AM 39.2 °F 33.6 °F 37.4 °F 93% 29.58 in 5.0 mi SW 8.1 mph - 0.01 in   Overcast
10:53 AM 41.0 °F 35.8 °F 39.9 °F 96% 29.60 in 8.0 mi WSW 8.1 mph - 0.01 in   Overcast
11:53 AM 41.0 °F 34.3 °F 39.0 °F 93% 29.62 in 5.0 mi WSW 11.5 mph - 0.00 in Rain Light Rain
12:15 PM 41.0 °F 31.9 °F 37.4 °F 87% 29.62 in 10.0 mi West 19.6 mph 25.3 mph 0.00 in   Overcast
12:43 PM 39.2 °F 29.3 °F 37.4 °F 93% 29.63 in 8.0 mi WSW 20.7 mph 25.3 mph 0.00 in   Overcast
12:53 PM 39.9 °F 31.1 °F 36.0 °F 86% 29.65 in 6.0 mi WSW 17.3 mph 27.6 mph 0.00 in   Overcast
1:08 PM 41.0 °F 32.5 °F 35.6 °F 81% 29.63 in 10.0 mi WSW 17.3 mph - N/A   Overcast
1:49 PM 44.6 °F 37.8 °F 35.6 °F 71% 29.64 in 10.0 mi SW 15.0 mph - N/A   Overcast
1:53 PM 42.1 °F 34.2 °F 34.0 °F 73% 29.66 in 10.0 mi WSW 16.1 mph - N/A   Overcast
2:07 PM 39.2 °F 29.3 °F 30.2 °F 70% 29.65 in 10.0 mi West 20.7 mph 28.8 mph N/A   Overcast
2:26 PM 39.2 °F 29.6 °F 30.2 °F 70% 29.65 in 10.0 mi West 19.6 mph 26.5 mph N/A   Overcast
2:35 PM 39.2 °F 30.5 °F 30.2 °F 70% 29.66 in 10.0 mi West 16.1 mph 25.3 mph N/A   Overcast
2:53 PM 39.9 °F 30.2 °F 30.0 °F 68% 29.68 in 10.0 mi West 20.7 mph 24.2 mph N/A   Overcast
3:28 PM 41.0 °F 33.1 °F 32.0 °F 70% 29.67 in 10.0 mi West 15.0 mph - N/A   Overcast
3:53 PM 39.9 °F 32.1 °F 30.9 °F 70% 29.70 in 10.0 mi WSW 13.8 mph - N/A   Overcast
4:01 PM 39.2 °F 32.0 °F 32.0 °F 75% 29.68 in 10.0 mi WSW 11.5 mph - N/A   Overcast
4:37 PM 41.0 °F 33.1 °F 32.0 °F 70% 29.69 in 10.0 mi WSW 15.0 mph 21.9 mph N/A   Overcast
4:53 PM 41.0 °F 32.8 °F 30.9 °F 67% 29.71 in 10.0 mi WSW 16.1 mph - N/A   Overcast
5:46 PM 41.0 °F 33.9 °F 32.0 °F 70% 29.71 in 10.0 mi SW 12.7 mph - N/A   Overcast
5:53 PM 41.0 °F 34.7 °F 33.1 °F 73% 29.73 in 10.0 mi WSW 10.4 mph - N/A   Overcast
6:14 PM 41.0 °F 34.7 °F 33.8 °F 76% 29.72 in 10.0 mi SW 10.4 mph - N/A   Overcast
6:53 PM 41.0 °F 35.2 °F 34.0 °F 76% 29.74 in 10.0 mi SW 9.2 mph - N/A   Overcast
7:19 PM 41.0 °F 33.5 °F 33.8 °F 76% 29.73 in 10.0 mi SW 13.8 mph - N/A   Overcast
7:53 PM 39.9 °F 32.9 °F 35.1 °F 83% 29.75 in 10.0 mi SW 11.5 mph 19.6 mph N/A   Overcast
8:43 PM 39.2 °F 33.6 °F 35.6 °F 87% 29.75 in 10.0 mi SW 8.1 mph - N/A   Overcast
8:53 PM 39.9 °F 33.4 °F 35.1 °F 83% 29.76 in 10.0 mi SW 10.4 mph - N/A   Overcast
9:11 PM 39.2 °F 33.0 °F 35.6 °F 87% 29.75 in 10.0 mi SW 9.2 mph - N/A   Overcast
9:53 PM 39.9 °F 33.9 °F 35.1 °F 83% 29.78 in 10.0 mi SW 9.2 mph - N/A   Overcast
10:02 PM 39.2 °F 33.6 °F 35.6 °F 87% 29.76 in 10.0 mi SW 8.1 mph - N/A   Overcast
10:53 PM 41.0 °F 34.7 °F 36.0 °F 82% 29.78 in 10.0 mi SW 10.4 mph - N/A   Overcast
11:53 PM 39.9 °F 33.4 °F 37.0 °F 89% 29.79 in 10.0 mi SW 10.4 mph - N/A   Overcast